Location: East Arcadia
(34.1056°N, 118.0176°W)
Time: 00:43:45
(UTC+00:00)

SAR-Lupe-2 - Pass Details

Date: 01 April 2023
Orbit: 481 x 482 km, 98.1° (Epoch: 05 September)

Event Time Altitude Azimuth Distance (km) Brightness Sun altitude
Rises 12:25:56 0° 2° (N) 2,546 7.5 -15.8°
Reaches altitude 10° 12:28:06 10° 353° (N) 1,662 6.4 -15.3°
Maximum altitude 12:31:23 35° 287° (WNW) 792 4.2 -14.7°
Enters shadow 12:32:35 27° 246° (WSW) 954 4.4 -14.4°
